Change the Weather History Date:

Wednesday, April 10, 2013

  Actual Average Record
Temperature  
Mean Temperature 70 °F -  
Max Temperature 86 °F 68 °F 86 °F (2013)
Min Temperature 57 °F 47 °F 37 °F (2001)
Cooling Degree Days 6    
Growing Degree Days 20 (Base 50)    
Moisture  
Dew Point 17 °F    
Average Humidity 14    
Maximum Humidity 30    
Minimum Humidity 5    
Precipitation  
Precipitation 0.00 in - - ()
Sea Level Pressure  
Sea Level Pressure 30.00 in    
Wind  
Wind Speed 10 mph (NNW)    
Max Wind Speed 18 mph    
Max Gust Speed 26 mph    
Visibility 10 miles    
Events      
Averages and records for this station are not official NWS values.
T = Trace of Precipitation, MM = Missing Value Source: NWS Daily Summary

Daily Weather History Graph

Daily Weather History Graph

Search for Another Location

Airport or City:

Trip Planner

Search our weather history database for the weather conditions in past years. The results will help you decide how hot, cold, wet, or windy it might be!

Date:

Astronomy

Apr. 10, 2013 Rise Set
Actual Time 6:28 AM PDT 7:22 PM PDT
Civil Twilight 6:03 AM PDT 7:47 PM PDT
Nautical Twilight 5:33 AM PDT 8:17 PM PDT
Astronomical Twilight 5:01 AM PDT 8:49 PM PDT
Moon 6:29 AM PDT (4/10) 7:59 PM PDT (4/10)
Length of Visible Light 13h 44m
Length of Day
12h 53m
New Moon, 0% of the Moon is Illuminated
Apr 10
New Moon
Apr 18
First Quarter
Apr 25
Full
May 2
Last Quarter
May 9
New

Hourly Weather History & Observations

Time (PDT) Temp. Dew Point Humidity Pressure Visibility Wind Dir Wind Speed Gust Speed Precip Events Conditions
12:51 AM 63.0 °F 21.9 °F 21% 30.01 in 10.0 mi NNW 9.2 mph - N/A   Clear
1:51 AM 64.0 °F 19.9 °F 18% 29.99 in 10.0 mi North 17.3 mph - N/A   Clear
2:51 AM 64.0 °F 18.0 °F 17% 29.99 in 10.0 mi NNE 15.0 mph - N/A   Clear
3:51 AM 63.0 °F 17.1 °F 17% 29.98 in 10.0 mi NNE 11.5 mph - N/A   Clear
4:51 AM 61.0 °F 17.1 °F 18% 29.99 in 10.0 mi North 10.4 mph - N/A   Clear
5:51 AM 57.9 °F 19.9 °F 23% 30.01 in 10.0 mi Variable 4.6 mph - N/A   Clear
6:51 AM 61.0 °F 18.0 °F 19% 30.04 in 10.0 mi WNW 5.8 mph - N/A   Clear
7:51 AM 66.9 °F 15.1 °F 14% 30.06 in 10.0 mi Variable 3.5 mph - N/A   Clear
8:51 AM 72.0 °F 14.0 °F 11% 30.06 in 10.0 mi Calm Calm - N/A   Clear
9:51 AM 75.0 °F 12.0 °F 9% 30.07 in 10.0 mi NNW 11.5 mph 19.6 mph N/A   Clear
10:51 AM 78.1 °F 8.1 °F 7% 30.06 in 10.0 mi North 18.4 mph 26.5 mph N/A   Clear
11:51 AM 81.0 °F 6.1 °F 6% 30.05 in 10.0 mi North 18.4 mph 24.2 mph N/A   Clear
12:51 PM 82.0 °F 5.0 °F 5% 30.03 in 10.0 mi NNW 13.8 mph 19.6 mph N/A   Clear
1:51 PM 82.9 °F 3.9 °F 5% 30.00 in 10.0 mi NNW 10.4 mph 20.7 mph N/A   Clear
2:51 PM 84.0 °F 6.1 °F 5% 29.97 in 10.0 mi Variable 5.8 mph 18.4 mph N/A   Clear
3:51 PM 84.0 °F 15.1 °F 8% 29.94 in 10.0 mi WNW 10.4 mph - N/A   Clear
4:51 PM 82.9 °F 19.0 °F 9% 29.94 in 10.0 mi West 9.2 mph - N/A   Clear
5:51 PM 82.0 °F 19.0 °F 10% 29.94 in 10.0 mi WNW 8.1 mph - N/A   Clear
6:51 PM 77.0 °F 19.9 °F 12% 29.95 in 10.0 mi West 8.1 mph - N/A   Clear
8:51 PM 71.1 °F 28.0 °F 20% 29.98 in 10.0 mi West 4.6 mph - N/A   Clear
9:51 PM 68.0 °F 28.9 °F 23% 29.99 in 10.0 mi Calm Calm - N/A   Clear
10:51 PM 66.9 °F 30.0 °F 25% 29.99 in 10.0 mi Calm Calm - N/A   Clear
11:51 PM 64.0 °F 32.0 °F 30% 29.97 in 10.0 mi East 3.5 mph - N/A   Clear